View from above orbital plane
|
View from above satellite
|
Ground track
|
The orbit data is extracted from the following two-line orbital elements,
1 33410U 08053C 21055.68773581 .00000099 00000-0 12228-4 0 9992
2 33410 97.8830 50.6610 0119678 353.6392 6.3304 14.99397942672568
Epoch (UTC): | 24 February 2021 16:30:20 |
Eccentricity: | 0.0119678 |
inclination: | 97.8830° |
perigee height: | 485 km |
apogee height: | 652 km |
right ascension of ascending node: | 50.6610° |
argument of perigee: | 353.6392° |
revolutions per day: | 14.99397942 |
mean anomaly at epoch: | 6.3304° |
orbit number at epoch: | 67256 |
The dashed part of the orbit path shows where the satellite is in the earth's shadow,
|
|